OBJECT Z, 68439

Orbit data source: Space-Track

You're viewing an Uncataloged Satellite

Recently launched and/or uncataloged satellites may have evolving metadata. Metadata may include but not limited to: Owner, Maufacturer, Bus, Motor, and Mission.

OBJECT Z, 68439 is a satellite in SSO that was launched on Mon, 30 Mar 2026 UTC via an FALCON 9 launch vehicle from the Air Force Western Test Range (AFWTR). Unknown objects in Earth's orbit typically refer to objects detected orbiting the Earth but have not yet been identified or cataloged. These objects could be anything from previously untracked satellites, spent rocket stages, debris from satellite collisions, or even natural meteoroids temporarily captured by Earth's gravity.

Loading next visibility...
Identifier
68439, 2026-067Z
Orbit
SSO
Country
Flag of TBDTBD
Related business
None
Manufacturer
Unknown
Mission
Operational spacecraft
Bus & Motor
Unknown
Mass
Unknown
Launch date (UTC)
2026-03-30 (1 month ago)
Launch vehicle
FALCON 9
Launch site
Air Force Western Test Range (AFWTR)
Object type
Unknown
Shape & HBR
Unknown shape, 1.1 m
Radar Cross Section
RCS unknown

Expand to show TLE details & history
Last TLE update: 9 hours ago

TLE from 9 hours ago
0 OBJECT Z
1 68439U 26067Z   26127.14345026  .00012015  00000-0  58635-3 0  9993
2 68439  97.4502  86.2017 0003024 151.5925 208.5474 15.18431230  5711
Epoch: 2026-05-07T03:26Z
TLE epoch observation values (Epoch: 2026-05-07T03:26:34.102Z)
Latitude
-0.00007°
Longitude
169.5658°
Altitude
515.499 km
Speed
7.605 km/s
True Right ascension
05h 44m 48s
True Declination
0° 00' 00"
Sunlit
Object was in daylight at epoch
Visualization orbit readout
Latitude
Unknown
Longitude
Unknown
Altitude
Unknown
Speed
Unknown
Apparent Right ascension
Unknown
Apparent Declination
Unknown
Sunlit
N/A
Visualization observer readout
Local Sidereal Time
20:04:29
Azimuth
Unknown
Elevation
Unknown
Doppler factor
Unknown
Orbital elements
Apogee altitude
509.633 km
Perigee altitude
505.469 km
Semi-major axis
6,885.688 km
Eccentricity
0.0003
Inclination
97.4502°
RAAN
86.2017°
Arg. of periapsis
151.5925°
True anomaly
208.53085°
Mean anomaly
208.5474°
Eccentric anomaly
208.53912°
Mean motion
3.79859 °/min
Orbital period
94.77 mins
BSTAR
0.00058635
Loading maneuver chart data...
Computing Atmospheric mass density...
Loading historical data...
Loading historical data...
Loading historical data...
Loading historical data...
Loading historical data...
Loading historical data...
Loading historical data...

Documentation

Showing up to 5 results
|